Weather Roundup
Issued by NWS Springfield, MO

Home | Current Version | Previous Version | Graphics & Text | Print | Product List | Glossary On
Versions: 1 2 3 4 5 6 7 8 9 10 11 12 13 14 15 16 17 18 19 20 21 22 23 24 25 26 27 28 29 30 31 32 33 34 35 36 37 38 39 40 41 42 43 44 45 46 47 48 49 50
000
NZUS99 KSGF 200357
HRRSGF

HOURLY WEATHER
NATIONAL WEATHER SERVICE SPRINGFIELD MO
1000 PM CST SUN FEB 19 2017

......SGF CWA......

CITY           SKY/WX    TMP DP  RH WIND       PRES   REMARKS
SPRINGFIELD    CLEAR     62  55  77 SE16      29.98S
JOPLIN         MOCLDY    67  56  67 SE8       29.93S
WEST PLAINS    CLEAR     58  55  90 SE5       30.07R
ROLLA          PTCLDY    60  53  77 S9        30.02S

......SURROUNDING SGF CWA......

CITY           SKY/WX    TMP DP  RH WIND       PRES   REMARKS
CHANUTE        CLOUDY    62  56  80 E9        29.87F
PARSONS        CLOUDY    64  56  75 SE6       29.87F
COFFEYVILLE    MOCLDY    63  57  81 SE8       29.87F
EMPORIA        CLOUDY    58  54  86 SE12      29.85F
HARRISON AR    CLEAR     59  56  89 SE10      30.02F

......KANSAS AND MISSOURI......

CITY           SKY/WX    TMP DP  RH WIND       PRES   REMARKS
KANSAS CTY INT MOCLDY    59  52  77 S9        29.91R
SEDALIA        MOCLDY    65  56  72 S17       29.97R
ST JOSEPH      CLOUDY    59  53  80 S9        29.89R
ST LOUIS       MOCLDY    61  52  72 SE12      30.06S
WICHITA        TSTM      61  59  93 S8        29.82F FOG
TOPEKA         PTCLDY    57  52  83 E3        29.87F
OLATHE         CLEAR     59  52  77 S5        29.90F

......TENNESSEE......

CITY           SKY/WX    TMP DP  RH WIND       PRES   REMARKS
MEMPHIS        NOT AVBL
NASHVILLE      PTCLDY    53  48  83 CALM      30.14R

......ARKANSAS.......

CITY           SKY/WX    TMP DP  RH WIND       PRES   REMARKS
FAYETTEVILLE   PTCLDY    66  56  70 SE6       29.98S
FT SMITH       CLOUDY    66  57  72 E6        29.96S
LITTLE ROCK    CLEAR     59  55  87 SE3       30.02S

......OKLAHOMA.......

CITY           SKY/WX    TMP DP  RH WIND       PRES   REMARKS
TULSA          CLOUDY    68  61  78 SE13      29.86S
MCALESTER      MOCLDY    65  57  75 SE8       29.87F
OKLAHOMA CITY  TSTM      64  62  93 SE20G29   29.81S

......IOWA............

CITY           SKY/WX    TMP DP  RH WIND       PRES   REMARKS
DES MOINES     NOT AVBL
QUAD CITIES    CLOUDY    57  44  62 SE10      30.02R

......ILLINOIS........

CITY           SKY/WX    TMP DP  RH WIND       PRES   REMARKS
QUINCY         NOT AVBL
CHICAGO        MOCLDY    47  29  49 CALM      30.09R



USA.gov is the U.S. government's official web portal to all federal, state and local government web resources and services.